Location: Sungai Anya
(2.6167°N, 114.0500°E)
Time: 19:09:42
(UTC+00:00)

Ariane H10 - Pass Details

Date: 19 October 2021
Orbit: 378 x 15585 km, 4.0° (Epoch: 07 December)

Event Time Altitude Azimuth Distance (km) Brightness Sun altitude
Rises 11:03:51 0° 273° (W) 10,630 11.5 -14.0°
Reaches altitude 10° 11:15:22 10° 273° (W) 6,875 10.1 -16.9°
Maximum altitude 11:30:41 81° 187° (S) 1,069 4.6 -20.6°
Enters shadow 11:32:33 40° 104° (ESE) 1,194 4.5 -21.1°
